Location: Tucson
(32.2220°N, 110.9260°W)
Time: 19:12:14
(UTC-07:00)

Envisat - Visible Passes

Search period start: 20 April 2018 00:00
Search period end: 30 April 2018 00:00
Orbit: 764 x 766 km, 98.2° (Epoch: 20 April)

Date Brightness Start Highest point End Pass type
(mag) Time Alt. Az. Time Alt. Az. Time Alt. Az.
20 Apr 3.5 19:21:43 10° SE 19:26:28 42° ENE 19:31:12 10° N visible
20 Apr 5.5 21:02:18 10° SW 21:05:35 17° W 21:08:52 10° NW visible
21 Apr 4.2 20:23:54 10° S 20:28:40 42° W 20:33:28 10° NNW visible
22 Apr 2.9 19:46:52 10° SSE 19:51:56 79° ENE 19:57:01 10° N visible
23 Apr 5.2 20:50:27 10° SSW 20:54:21 22° W 20:58:18 10° NW visible
24 Apr 3.7 20:12:33 10° S 20:17:30 55° W 20:22:28 10° NNW visible
25 Apr 3.1 19:35:50 10° SSE 19:40:49 61° ENE 19:45:49 10° N visible
25 Apr 5.8 21:18:29 10° WSW 21:20:08 11° W 21:21:48 10° WNW visible
26 Apr 4.8 20:38:48 10° SSW 20:43:09 29° W 20:47:32 10° NW visible
27 Apr 3.2 20:01:18 10° S 20:06:21 72° W 20:11:25 10° NNW visible
28 Apr 3.3 19:24:54 10° SE 19:29:43 46° ENE 19:34:33 10° N visible
28 Apr 5.6 21:05:57 10° SW 21:08:53 15° W 21:11:51 10° WNW visible
29 Apr 4.4 20:27:17 10° SSW 20:31:58 37° W 20:36:40 10° NNW visible
